Regional Weather Roundup
Issued by NWS Portland, ME

Home | Current Version | Previous Version | Text Only | Print | Product List | Glossary On
Versions: 1 2 3 4 5 6 7 8 9 10 11 12 13 14 15 16 17 18 19 20 21 22 23 24 25 26 27 28 29 30 31 32 33 34 35 36 37 38 39 40 41 42 43 44 45 46 47 48 49 50
000
ASUS41 KGYX 221510
RWRGYX
WEATHER ROUNDUP FOR MAINE AND NEW HAMPSHIRE
NATIONAL WEATHER SERVICE GRAY ME
1100 AM EDT WED OCT 22 2014

MEZ002-005-006-010-012-015-018-020-021-024-026-027-029-221600-
MAINE

CITY           SKY/WX    TMP DP  RH WIND       PRES   REMARKS
PORTLAND       NOT AVBL
WISCASSET      NOT AVBL
FRYEBURG       NOT AVBL
AUGUSTA        NOT AVBL
BANGOR         NOT AVBL
GREENVILLE       N/A     47  35  63 NE14      30.24S
MILLINOCKET    NOT AVBL
HOULTON        NOT AVBL
PRESQUE ISLE   NOT AVBL
FRENCHVILLE    NOT AVBL
CARIBOU        NOT AVBL
$$

NHZ002-005-008-009-011-012-014-221600-
NEW HAMPSHIRE

CITY           SKY/WX    TMP DP  RH WIND       PRES   REMARKS
ROCHESTER      NOT AVBL
MANCHESTER     NOT AVBL
CONCORD        NOT AVBL
BERLIN         NOT AVBL
WHITEFIELD     NOT AVBL
JAFFREY        NOT AVBL
LEBANON        NOT AVBL
MT WASHINGTON  NOT AVBL
$$

VTZ005-007-008-221600-
VERMONT

CITY           SKY/WX    TMP DP  RH WIND       PRES   REMARKS
ST JOHNSBURY     N/A     51  44  77 MISG      30.15F
$$

MAZ007-012-024-CTZ003-RIZ002-NYZ038-NYZ072-221600-
SOUTHERN NEW ENGLAND AND NY

CITY           SKY/WX    TMP DP  RH WIND       PRES   REMARKS
$$

ANZ081-ANZ082-ANZ150-NHZ014-MEZ023>029-221600-
COASTAL MARINE OBSERVATIONS

STATION/POSITION TIME  TEMP    WIND        PRES    WAVE
                       AIR SEA DIR/SP/G            HT/PER
                 (UTC) (F)     (DEG/KT/KT) (MB)    (FT/S)
MATINICUS ROCK   1400           50/ 36/ 40 1017.1F
PORTLAND WX BUOY 1350   50 55   20/ 21/ 25 1018.4    7/ 8
WELLS            1400   49 50   30/ 12/ 20 1018.1F
ISLE OF SHOALS   1400   49      30/ 32/ 37 1016.5F
JEFFREYS LEDGE   1421      56                N/A    13/ 8
CASHES LEDGE BUO 1350   55 55   50/ 29/ 35 1014.7   12/ 8
$$

.............KEY..............
   WCI - WIND CHILL
   TC  - TEMPERATURE IN CELSIUS
   VSB - VISIBILITY IN MILES
   HX  - HEAT INDEX
   FAIR- INDICATES FEW OR NO CLOUDS BELOW 12,000 FT, WITH NO
         SIGNIFICANT WEATHER AND/OR OBSTRUCTIONS TO VISIBILITY.





USA.gov is the U.S. government's official web portal to all federal, state and local government web resources and services.